Tracking 26006 objects as of 17-Aug-2022
HD Live streaming from Space Station
objects crossing your sky now

RESURS O1 DEB

Track RESURS O1 DEB now!
10-day predictions


NORAD ID: 46891
Int'l Code: 1994-074BX
Perigee: 612.3 km
Apogee: 617.0 km
Inclination: 97.9 °
Period: 96.8 minutes
Semi major axis: 6985 km
RCS: Unknown
Launch date: November 4, 1994
Source: Commonwealth of Independent States (former USSR) (CIS)
Launch site: TYURATAM MISSILE AND SPACE COMPLEX (TTMTR)

Note: This is SATELLITE DEBRIS
aabbcc
Your satellite tracking list
Your tracking list is empty




NASA's NSSDC Master Catalog

Two Line Element Set (TLE):
1 46891U 94074BX  22228.39235677  .00012724  00000-0  14269-2 0  9990
2 46891  97.9136 279.4340 0003371 214.9551 145.1443 14.86940132 96279
Source of the keplerian elements: AFSPC